sat.trackr.live / text

‹ back to catalog

STARLINK-31729

NORAD 59610 · 2024-080K

PAYLOAD ACTIVE UNKNOWN

§ Identity

Operator
Country
US
Launch date
2024-04-28
Launch site
AFETR
Launch vehicle
Mass (kg)
RCS (m²)

Purposes: comms

External: N2YO · Heavens-Above · Gunter

§ Orbital elements

Epoch: 2026-09-21T08:24:49.900320Z

Period
94.27 min
Inclination
43.0040°
Eccentricity
0.0000848
Mean motion
15.27573275 rev/d
Perigee alt
482.5 km
Apogee alt
483.7 km
Semi-major
6,861.2 km
B*
-1.4374e-5
RAAN
9.7012°
Arg perigee
277.8519°
Mean anomaly
82.2236°
Rev number
13,449

§ Raw data

STARLINK-317291 59610U 24080K   26264.35057755 -.00000657  00000+0 -14374-4 0  99942 59610  43.0040   9.7012 0000848 277.8519  82.2236 15.27573275134490

JSON: /api/v1/satellites/59610 · /tle

For live sub-satellite position, see the globe view (requires WebGL).

§ Visibility from observer

Set your observer location to see the next 7 days of passes ≥ 10°. The values pass through the URL so the page stays shareable.

No JS? Fill the form by hand. The geolocation button needs JavaScript.